x

Canaveral 20 Nm East Of Cape Canaveral, Fl (41009) Weather Station

1:20pm - Sun 25th Feb 2018 All times are EST. -5 hours from GMT.

  • Wind
    11mph, 13mph gusts
  • Sea Temp 74°f
  • Air Temp 75°f
  • Sea Pressure 1021.7mb
  • Canaveral 20 Nm East Of Cape Canaveral, Fl
  • Canaveral 20 Nm East Of Cape Canaveral, Fl

More Historic Weather Station data

Upgrade to MSW Pro to gain access to the past 30 days of data for over 8000 Wavebouys and Weather Stations around the globe.

Join

Comparision Forecast

View Surf forecast
   
Sun 02/25 1:20pm  -   -   -  11 13 mph 1021.7mb 74f 75f
1:10pm  -   -   -  11 13 mph 1021.8mb 74f 75f
1:00pm  -   -   -  11 13 mph 1021.8mb 74f 75f
12:50pm 4ft 10s 6s 11 13 mph 1021.9mb 74f 75f
12:40pm  -   -   -  11 13 mph 1022mb 74f 75f
12:30pm  -   -   -  11 13 mph 1022.2mb 74f 75f
12:20pm  -   -   -  11 13 mph 1022.3mb 74f 75f
12:10pm  -   -   -  11 13 mph 1022.5mb - 75f
12:00pm  -   -   -  11 13 mph 1022.6mb 74f 75f
11:50am 3.5ft 10s 6s 9 11 mph 1022.7mb 74f 75f
11:40am  -   -   -  11 11 mph 1022.8mb 74f 75f
11:30am  -   -   -  9 11 mph 1022.9mb 74f 75f
11:20am  -   -   -  9 11 mph 1023.1mb - 75f
11:10am  -   -   -  9 11 mph 1023.1mb 74f 75f
11:00am  -   -   -  11 11 mph 1023.1mb 74f 75f
10:50am 4ft  -  6s 11 11 mph - 74f 75f
10:40am  -   -   -  11 11 mph 1023.1mb 74f 75f
10:30am  -   -   -  9 11 mph 1023.1mb 74f 75f
10:20am  -   -   -  9 11 mph 1023.1mb 74f 75f
10:10am  -   -   -  9 11 mph 1023.1mb 74f 75f
10:00am  -   -   -  9 11 mph 1023.1mb 74f 75f
9:50am 4ft 10s 6s 9 11 mph 1023.1mb 74f 75f
9:40am  -   -   -  9 11 mph 1023.1mb 74f 75f
9:30am  -   -   -  9 11 mph 1023.1mb 74f 75f
9:20am  -   -   -  9 11 mph 1023mb 74f 75f
9:10am  -   -   -  9 11 mph 1023mb 74f 75f
9:00am  -   -   -  9 11 mph 1023mb 74f 75f
8:50am 4.5ft 10s 6s 9 11 mph 1023mb 74f 75f
8:40am  -   -   -  9 13 mph 1022.9mb 74f 75f
8:30am  -   -   -  9 13 mph 1022.9mb 74f 75f
8:20am  -   -   -  9 11 mph 1022.8mb 74f 75f
8:10am  -   -   -  9 11 mph 1022.7mb 74f 75f
8:00am  -   -   -  9 11 mph 1022.6mb 74f 75f
7:50am 3.5ft 10s 6s 9 11 mph 1022.5mb 74f 75f
7:40am 3.5ft  -  6s 9 13 mph 1022.5mb 74f 74f
7:30am  -   -   -  9 13 mph 1022.3mb 74f 74f
7:20am  -   -   -  11 13 mph 1022.2mb 74f 74f
7:10am  -   -   -  11 13 mph 1022.1mb 74f 74f
7:00am  -   -   -  11 13 mph 1022mb 74f 74f
6:50am 4ft 10s 6s 11 13 mph 1021.9mb 74f 74f
6:40am 4ft  -  6s 11 13 mph 1021.9mb 74f 74f
6:30am  -   -   -  11 13 mph 1021.8mb 74f 74f
6:20am  -   -   -  11 13 mph 1021.8mb 74f 74f
6:10am  -   -   -  11 16 mph 1021.7mb - 74f
6:00am  -   -   -  11 13 mph 1021.5mb 74f 74f
5:50am 4ft 9s 6s 11 13 mph 1021.5mb 74f 74f
5:40am  -   -   -  9 11 mph 1021.5mb 74f 74f
5:30am  -   -   -  7 9 mph 1021.5mb 74f 74f
5:20am  -   -   -  7 9 mph 1021.4mb - 74f
5:10am  -   -   -  4 7 mph 1021.4mb 74f 74f
5:00am  -   -   -  4 4 mph 1021.4mb 74f 74f
4:50am 4ft 10s 6s 2 4 mph 1021.4mb 74f 74f
4:40am  -   -   -  4 9 mph 1021.5mb 74f 74f
4:30am  -   -   -  7 7 mph 1021.5mb 74f 74f
4:20am  -   -   -  7 9 mph 1021.5mb 74f 74f
4:10am  -   -   -  7 9 mph 1021.4mb 74f 74f
4:00am  -   -   -  9 9 mph 1021.5mb 74f 74f
3:50am 4ft 9s 5s 9 11 mph 1021.5mb 74f 74f
3:40am 4ft  -  5s 9 11 mph 1021.5mb 74f 74f
3:30am  -   -   -  9 11 mph 1021.4mb 74f 74f
3:20am  -   -   -  9 11 mph 1021.4mb 74f 74f
3:10am  -   -   -  9 11 mph 1021.4mb 74f 74f
3:00am  -   -   -  9 11 mph 1021.4mb - 74f
2:50am 4.5ft 9s 6s 9 11 mph 1021.5mb 74f 74f
2:40am  -   -   -  11 13 mph 1021.6mb 74f 74f
2:30am  -   -   -  11 13 mph 1021.6mb 74f 74f
2:20am  -   -   -  11 13 mph 1021.7mb 74f 75f
2:10am  -   -   -  11 13 mph 1021.7mb 74f 75f
2:00am  -   -   -  13 16 mph 1021.7mb 74f 74f
1:50am 4ft 9s 5s 11 16 mph 1021.7mb 74f 74f
1:40am 4ft  -  5s 13 16 mph 1021.8mb 74f 74f
1:30am  -   -   -  13 18 mph 1021.7mb 74f 75f
1:20am  -   -   -  16 20 mph 1021.7mb 74f 75f
1:10am  -   -   -  13 18 mph 1021.7mb 74f 75f
1:00am  -   -   -  13 18 mph 1021.7mb 74f 75f
12:50am 4ft 9s 5s 13 18 mph 1021.7mb 74f 75f
12:40am 4ft  -  5s 13 18 mph 1021.7mb 74f 75f
12:30am  -   -   -  13 18 mph 1021.8mb 74f 75f
12:20am  -   -   -  13 18 mph 1021.7mb 74f 75f
12:10am  -   -   -  16 18 mph 1021.6mb 74f 75f
12:00am  -   -   -  13 18 mph 1021.6mb 74f 75f
Sat 02/24 11:50pm 4.5ft 9s 5s 16 18 mph 1021.6mb 74f 75f
11:40pm  -   -   -  13 18 mph 1021.6mb 74f 75f
11:30pm  -   -   -  16 18 mph 1021.5mb 74f 75f
11:20pm  -   -   -  16 18 mph 1021.6mb 74f 75f
11:10pm  -   -   -  16 20 mph 1021.6mb 74f 75f
11:00pm  -   -   -  16 20 mph 1021.6mb 74f 75f
10:50pm 4.5ft  -  5s 16 20 mph 1021.6mb 74f 75f
10:40pm 4.5ft 8s 5s  -  mph - - -
10:30pm  -   -   -  16 20 mph 1021.6mb 74f 75f
10:20pm  -   -   -  16 20 mph 1021.7mb 74f 75f
10:10pm  -   -   -  16 20 mph 1021.6mb 74f 75f
10:00pm  -   -   -  16 20 mph 1021.5mb 74f 75f
9:50pm 4.5ft  -  5s 16 18 mph 1021.5mb 74f 75f
9:40pm 4.5ft 10s 5s  -  mph - - -
9:30pm  -   -   -  13 18 mph 1021.7mb 74f 75f
9:20pm  -   -   -  16 18 mph 1021.8mb 74f 75f
9:10pm  -   -   -  16 20 mph 1021.7mb 74f 75f
9:00pm  -   -   -  16 18 mph 1021.7mb - -
8:50pm 4.5ft 9s 5s 16 18 mph 1021.7mb 74f 75f
8:40pm  -   -   -  16 18 mph 1021.7mb 74f 75f
8:30pm  -   -   -  13 18 mph 1021.7mb 74f 75f
8:20pm  -   -   -  13 18 mph 1021.8mb 74f 75f
8:10pm  -   -   -  13 18 mph 1021.8mb 74f 75f
8:00pm  -   -   -  13 16 mph 1021.7mb 74f 75f
7:50pm 4.5ft 9s 6s 13 18 mph 1021.6mb 74f 75f
7:40pm 4.5ft  -  6s 13 18 mph 1021.6mb 74f 75f
7:30pm  -   -   -  16 18 mph 1021.5mb 74f 75f
7:20pm  -   -   -  13 18 mph 1021.4mb 74f 75f
7:10pm  -   -   -  13 18 mph 1021.3mb 74f 75f
7:00pm  -   -   -  13 18 mph 1021.3mb 74f 75f
6:50pm 4.5ft 10s 6s 13 18 mph 1021.2mb 74f 75f
6:40pm 4.5ft  -  6s 13 18 mph 1021.2mb 74f 75f
6:30pm  -   -   -  13 16 mph 1021.2mb 74f 75f
6:20pm  -   -   -  13 18 mph 1021.3mb 74f 75f
6:10pm  -   -   -  13 18 mph 1021.4mb 74f 75f
6:00pm  -   -   -  13 16 mph 1021.4mb 74f 75f
5:50pm 4.5ft 10s 6s 13 16 mph 1021.4mb 74f 75f
5:40pm 4.5ft  -  6s 13 16 mph 1021.5mb 74f 75f
5:30pm  -   -   -  13 16 mph 1021.5mb - 75f
5:20pm  -   -   -  13 16 mph 1021.5mb 74f 75f
5:10pm  -   -   -  13 16 mph 1021.5mb 74f 75f
5:00pm  -   -   -  13 16 mph 1021.6mb 74f 75f
4:50pm 4.5ft 9s 6s 11 13 mph 1021.5mb 74f 75f
4:40pm 4.5ft  -  6s 11 13 mph 1021.5mb 74f 75f
4:30pm  -   -   -  11 13 mph 1021.6mb 74f 75f
4:20pm  -   -   -  11 13 mph 1021.7mb 74f 75f
4:10pm  -   -   -  11 13 mph 1021.7mb 74f 75f
4:00pm  -   -   -  9 13 mph 1021.8mb 74f 75f
3:50pm 4ft 9s 6s 9 11 mph 1021.9mb 74f 75f
3:40pm 4ft  -  6s 9 11 mph 1021.8mb 74f 75f
3:30pm  -   -   -  9 13 mph - 74f 75f
3:20pm  -   -   -  9 11 mph 1021.8mb 74f 75f
3:10pm  -   -   -  9 11 mph 1021.8mb 74f 75f
3:00pm  -   -   -  9 11 mph - 74f 75f
2:50pm 4.5ft 10s 6s 9 11 mph 1022mb 74f 75f
2:40pm 4.5ft  -  6s 9 11 mph 1022mb 74f 75f
2:30pm  -   -   -  9 11 mph 1022.1mb 74f 75f
2:20pm  -   -   -  9 11 mph 1022mb 74f 75f
2:10pm  -   -   -  9 11 mph 1022.1mb 74f 75f
2:00pm  -   -   -  11 13 mph - 74f 75f
1:50pm 4.5ft 9s 6s 9 11 mph 1022.3mb 74f 75f
1:40pm  -   -   -  9 11 mph 1022.5mb 74f 75f
1:30pm  -   -   -  9 11 mph 1022.6mb 74f 75f
1:20pm  -   -   -  9 11 mph 1022.8mb 74f 75f
1:10pm  -   -   -  9 11 mph 1022.9mb 74f 75f
1:00pm  -   -   -  9 11 mph - 74f 75f
12:50pm 4.5ft 9s 6s 9 11 mph 1023.4mb 74f 75f
12:40pm  -   -   -  9 11 mph 1023.6mb 74f 75f
12:30pm  -   -   -  9 11 mph 1023.7mb 74f 75f
12:20pm  -   -   -  9 11 mph 1023.8mb 74f 75f
12:10pm  -   -   -  9 11 mph 1023.9mb 74f 75f
12:00pm  -   -   -  9 11 mph 1024.1mb - 75f
11:50am 4.5ft 9s 6s 9 11 mph 1024.1mb 74f 75f
11:40am  -   -   -  11 13 mph 1024.2mb 74f 75f
11:30am  -   -   -  9 13 mph 1024.3mb - 75f
11:20am  -   -   -  11 13 mph 1024.3mb 74f 75f
11:10am  -   -   -  11 13 mph 1024.3mb 74f 75f
11:00am  -   -   -  11 13 mph 1024.4mb 74f 75f
10:50am 4.5ft 9s 6s 11 13 mph 1024.5mb 74f 75f
10:40am 4.5ft  -  6s 11 16 mph 1024.7mb 74f 75f
10:30am  -   -   -  11 16 mph 1024.7mb 74f 75f
10:20am  -   -   -  11 16 mph 1024.7mb 74f 75f
10:10am  -   -   -  11 13 mph 1024.8mb 74f 74f
10:00am  -   -   -  11 16 mph 1024.8mb 74f 74f
9:50am 4.5ft 10s 6s 9 11 mph 1024.8mb 74f 74f
9:40am  -   -   -  9 11 mph 1024.7mb 74f 74f
9:30am  -   -   -  9 11 mph 1024.7mb 74f 75f
9:20am  -   -   -  9 11 mph 1024.8mb 74f 75f
9:10am  -   -   -  9 11 mph 1024.7mb 74f 75f
9:00am  -   -   -  11 13 mph 1024.7mb 74f 75f
8:50am 4.5ft 9s 6s 11 13 mph 1024.7mb 74f 75f
8:40am 4.5ft  -  6s 11 13 mph 1024.6mb 74f 75f
8:30am  -   -   -  9 13 mph 1024.6mb 74f 75f
8:20am  -   -   -  11 13 mph 1024.5mb 74f 75f
8:10am  -   -   -  11 13 mph 1024.4mb 74f 74f
8:00am  -   -   -  11 13 mph 1024.3mb 74f 74f
7:50am 5ft 10s 6s 11 13 mph 1024.3mb 74f 74f
7:40am  -   -   -  11 13 mph 1024.3mb 74f 74f
7:30am  -   -   -  11 13 mph 1024.2mb 74f 74f
7:20am  -   -   -  11 13 mph 1024.2mb 74f 74f
7:10am  -   -   -  11 13 mph 1024.1mb 74f 74f
7:00am  -   -   -  11 13 mph 1024mb 74f 74f
6:50am 5ft 9s 6s 11 13 mph 1024mb 74f 74f
6:40am 5ft  -  6s 13 16 mph 1023.9mb 74f 74f
6:30am  -   -   -  11 16 mph 1023.8mb 74f 74f
6:20am  -   -   -  11 13 mph 1023.8mb 73f 74f
6:10am  -   -   -  11 16 mph 1023.7mb 74f 74f
6:00am  -   -   -  11 16 mph 1023.7mb 74f 74f
5:50am 5ft 9s 6s 11 16 mph 1023.6mb 74f 74f
5:40am 5ft  -  6s 11 16 mph 1023.6mb 74f 74f
5:30am  -   -   -  9 13 mph 1023.6mb 74f 74f
5:20am  -   -   -  11 13 mph 1023.5mb 74f 74f
5:10am  -   -   -  11 13 mph 1023.4mb 74f 74f
5:00am  -   -   -  11 13 mph 1023.4mb 73f 74f
4:50am 5.5ft 9s 6s 11 13 mph 1023.4mb 74f 74f
4:40am 5.5ft  -  6s 11 16 mph 1023.4mb 74f 74f
4:30am  -   -   -  13 18 mph 1023.3mb 74f 74f
4:20am  -   -   -  13 16 mph 1023.3mb 74f 74f
4:10am  -   -   -  13 16 mph 1023.2mb 74f 74f
4:00am  -   -   -  13 16 mph 1023.3mb 74f 74f
3:50am 5.5ft 9s 6s 13 16 mph 1023.3mb 74f 74f
3:40am 5.5ft  -  6s 13 16 mph 1023.5mb 74f 74f
3:30am  -   -   -  13 16 mph 1023.6mb 74f 74f
3:20am  -   -   -  13 16 mph 1023.7mb 74f 74f
3:10am  -   -   -  13 16 mph 1023.8mb 74f 74f
3:00am  -   -   -  13 18 mph 1023.9mb 74f 74f
2:50am 5.5ft 10s 6s 13 18 mph 1024.1mb 74f 74f
2:40am 5.5ft  -  6s 13 18 mph 1024.2mb 74f 74f
2:30am  -   -   -  13 18 mph 1024.3mb 74f 74f
2:20am  -   -   -  13 16 mph 1024.5mb 74f 74f
2:10am  -   -   -  13 18 mph 1024.5mb 74f 74f
2:00am  -   -   -  13 16 mph 1024.6mb 74f 74f
1:50am 5.5ft 9s 6s 16 18 mph 1024.6mb 74f 74f
1:40am  -   -   -  16 18 mph 1024.7mb 74f 74f
1:30am  -   -   -  13 18 mph 1024.8mb 74f 74f
1:20am  -   -   -  13 16 mph 1024.9mb 74f 74f
1:10am  -   -   -  16 18 mph 1024.9mb 74f 74f
1:00am  -   -   -  16 18 mph 1024.9mb 74f 74f
12:50am 5ft 9s 6s 16 18 mph 1025mb 74f 74f
12:40am  -   -   -  16 18 mph - 74f 74f
12:30am  -   -   -  16 18 mph 1025.1mb 74f 74f
12:20am  -   -   -  13 18 mph 1025.3mb 74f 74f
12:10am  -   -   -  16 18 mph 1025.3mb 74f 74f
12:00am  -   -   -  16 20 mph 1025.3mb 74f 74f
Fri 02/23 11:50pm 5.5ft 10s 6s 13 18 mph 1025.4mb 74f 74f
11:40pm  -   -   -  13 18 mph 1025.4mb 74f 74f
11:30pm  -   -   -  13 18 mph 1025.5mb 74f 74f
11:20pm  -   -   -  13 18 mph 1025.6mb 74f 74f
11:10pm  -   -   -  13 16 mph 1025.7mb 74f 74f
11:00pm  -   -   -  13 16 mph 1025.7mb 74f 74f
10:50pm 5ft 9s 6s 13 16 mph 1025.8mb 74f 74f
10:40pm 5ft  -  6s 13 16 mph 1025.9mb 74f 74f
10:30pm  -   -   -  13 18 mph 1025.9mb 74f 74f
10:20pm  -   -   -  13 16 mph 1026mb 74f 74f
10:10pm  -   -   -  11 16 mph 1026mb 74f 74f
10:00pm  -   -   -  11 13 mph 1026.1mb 74f 74f
9:50pm 5ft 9s 6s 11 13 mph 1026.2mb 74f 74f
9:40pm 5ft  -  6s 11 16 mph 1026.2mb 74f 74f
9:30pm  -   -   -  13 16 mph 1026.2mb 74f 74f
9:20pm  -   -   -  13 16 mph 1026.3mb 74f 74f
9:10pm  -   -   -  13 16 mph 1026.3mb 74f 74f
9:00pm  -   -   -  13 16 mph 1026.4mb 74f 75f
8:50pm 5ft 9s 6s 11 16 mph 1026.4mb 74f 75f
8:40pm  -   -   -  11 16 mph 1026.5mb 74f 74f
8:30pm  -   -   -  11 13 mph 1026.5mb 74f 74f
8:20pm  -   -   -  11 13 mph 1026.5mb 74f 74f
8:10pm  -   -   -  11 16 mph 1026.5mb 74f 74f
8:00pm  -   -   -  11 16 mph 1026.4mb - 74f
7:50pm 5ft 10s 6s 13 16 mph 1026.4mb 74f 74f
7:40pm  -   -   -  13 16 mph 1026.4mb 74f 74f
7:30pm  -   -   -  13 16 mph 1026.3mb 74f 74f
7:20pm  -   -   -  13 16 mph 1026.3mb 74f 74f
7:10pm  -   -   -  16 18 mph 1026.2mb 74f 74f
7:00pm  -   -   -  13 18 mph 1026.2mb 74f 75f
6:50pm 5ft 10s 6s 13 18 mph 1026.2mb 74f 75f
6:40pm  -   -   -  11 16 mph 1026.2mb 74f 75f
6:30pm  -   -   -  11 16 mph 1026.2mb 74f 75f
6:20pm  -   -   -  11 13 mph 1026.2mb 74f 75f
6:10pm  -   -   -  11 13 mph 1026.2mb 74f 75f
6:00pm  -   -   -  9 13 mph 1026.3mb 74f 75f
5:50pm 4.5ft 10s 6s 9 11 mph 1026.4mb 74f 75f
5:40pm 4.5ft  -  6s 9 11 mph 1026.4mb 74f 75f
5:30pm  -   -   -  9 13 mph 1026.3mb 74f 75f
5:20pm  -   -   -  9 11 mph 1026.4mb 74f 75f
5:10pm  -   -   -  11 13 mph 1026.3mb 74f 75f
5:00pm  -   -   -  11 13 mph 1026.3mb 74f 75f
4:50pm  -   -   -  9 13 mph 1026.3mb 74f 75f
4:40pm  -   -   -  9 11 mph 1026.3mb 74f 75f
4:30pm  -   -   -  9 11 mph 1026.3mb 74f 75f
4:20pm  -   -   -  11 13 mph 1026.3mb 73f 75f
4:10pm  -   -   -  9 11 mph 1026.2mb 73f 75f
4:00pm  -   -   -  9 13 mph 1026.3mb 73f 75f
3:50pm 5ft 9s 6s 9 13 mph 1026.2mb 73f 75f
3:40pm 5ft  -  6s 11 13 mph 1026.3mb 73f 75f
3:30pm  -   -   -  9 13 mph 1026.3mb 73f 75f
3:20pm  -   -   -  9 13 mph 1026.4mb 73f 75f
3:10pm  -   -   -  11 13 mph 1026.4mb 73f 75f
3:00pm  -   -   -  11 13 mph 1026.4mb 73f 75f
2:50pm 5ft 9s 6s 11 13 mph 1026.5mb 73f 75f
2:40pm  -   -   -  11 13 mph 1026.5mb 73f 75f
2:30pm  -   -   -  11 13 mph 1026.6mb 73f 75f
2:20pm  -   -   -  11 13 mph 1026.7mb 73f 75f
2:10pm  -   -   -  11 13 mph 1026.8mb 73f 75f
2:00pm  -   -   -  11 16 mph 1026.9mb 73f 75f
1:50pm 5ft 15s 6s 11 16 mph 1027mb 73f 75f
1:40pm  -   -   -  11 16 mph 1027.1mb 73f 75f
1:30pm  -   -   -  11 16 mph 1027.3mb 73f 75f
1:20pm  -   -   -  11 16 mph 1027.5mb 73f 75f
1:10pm  -   -   -  11 16 mph 1027.6mb 73f 75f
1:00pm  -   -   -  11 13 mph 1027.8mb 73f 75f
12:50pm 5ft 15s 6s 11 13 mph 1028mb 73f 75f
12:40pm 5ft  -  6s 11 13 mph 1028.1mb 73f 75f
12:30pm  -   -   -  11 16 mph 1028.3mb 73f 75f
12:20pm  -   -   -  11 13 mph 1028.5mb 73f 75f
12:10pm  -   -   -  11 16 mph 1028.6mb 73f 75f
12:00pm  -   -   -  11 13 mph 1028.7mb 73f 75f
11:50am 5ft 9s 6s 11 13 mph 1028.9mb 73f 75f
11:40am  -   -   -  11 16 mph 1029mb 73f 75f
11:30am  -   -   -  11 13 mph 1029.1mb 73f 75f
11:20am  -   -   -  11 16 mph 1029.3mb 73f 75f
11:10am  -   -   -  13 16 mph 1029.4mb 73f 75f
11:00am  -   -   -  11 16 mph 1029.4mb 73f 75f
10:50am 5.5ft 9s 6s 13 16 mph 1029.4mb 73f 75f
10:40am  -   -   -  13 18 mph 1029.4mb 73f 75f
10:30am  -   -   -  13 18 mph 1029.4mb 73f 75f
10:20am  -   -   -  13 18 mph 1029.3mb 73f 75f
10:10am  -   -   -  13 18 mph 1029.3mb 73f 75f
10:00am  -   -   -  16 18 mph 1029.3mb 73f 75f
9:50am 5.5ft 16s 6s 13 18 mph 1029.3mb 73f 75f
9:40am  -   -   -  13 18 mph 1029.2mb 73f 75f
9:30am  -   -   -  13 18 mph 1029.2mb 73f 75f
9:20am  -   -   -  13 18 mph 1029.1mb 73f 75f
9:10am  -   -   -  13 18 mph 1029.2mb 73f 75f
9:00am  -   -   -  13 18 mph 1028.9mb 73f 74f
8:50am 5.5ft 10s 6s 16 20 mph 1028.8mb 73f 74f
8:40am  -   -   -  16 18 mph 1028.7mb 73f 74f
8:30am  -   -   -  13 18 mph 1028.6mb 73f 74f
8:20am  -   -   -  13 16 mph 1028.6mb 73f 74f
8:10am  -   -   -  13 18 mph 1028.6mb 73f 74f
8:00am  -   -   -  13 18 mph 1028.5mb - 74f
7:50am 5.5ft 16s 7s 16 18 mph 1028.4mb 73f 74f
7:40am  -   -   -  9 18 mph 1028.4mb 73f 73f
7:30am  -   -   -  4 7 mph 1028.3mb 73f 71f
7:20am  -   -   -   -  2 mph 1028.4mb 73f 71f
7:10am  -   -   -  2 7 mph 1028.5mb 73f 71f
7:00am  -   -   -  7 11 mph 1028.5mb 73f 71f
6:50am 5.5ft 8s 6s 13 22 mph 1028.5mb 73f 71f
6:40am  -   -   -  20 27 mph 1028.3mb 73f 71f
6:30am  -   -   -  20 27 mph 1028.1mb 73f 74f
6:20am  -   -   -  18 20 mph 1027.8mb 73f 73f
6:10am  -   -   -  18 22 mph 1027.8mb 73f 73f
6:00am  -   -   -  18 22 mph 1027.7mb 73f 74f
5:50am 5.5ft 16s 6s 18 22 mph 1027.6mb 73f 74f
5:40am 5.5ft  -  6s 18 25 mph 1027.5mb 73f 74f
5:30am  -   -   -  18 22 mph 1027.5mb 73f 74f
5:20am  -   -   -  18 20 mph 1027.4mb 73f 74f
5:10am  -   -   -  16 18 mph 1027.3mb 73f 74f
5:00am  -   -   -  13 16 mph 1027.2mb 73f 74f
4:50am 5.5ft 9s  -  13 16 mph 1027.1mb - 74f
4:40am  -   -   -  13 16 mph 1027.1mb 73f 74f
4:30am  -   -   -  13 16 mph 1027.1mb 73f 74f
4:20am  -   -   -  13 18 mph 1027.1mb 73f 74f
4:10am  -   -   -  16 18 mph 1027.2mb 73f 74f
4:00am  -   -   -  13 18 mph 1027.1mb 73f 74f
3:50am 5ft 16s 6s 16 18 mph 1027.2mb 73f 74f
3:40am 5ft  -  6s 11 16 mph 1027.3mb 73f 74f
3:30am  -   -   -  11 13 mph 1027.3mb 73f 74f
3:20am  -   -   -  11 16 mph 1027.4mb 73f 74f
3:10am  -   -   -  13 18 mph 1027.4mb 73f 74f
3:00am  -   -   -  16 20 mph 1027.4mb 73f 74f
2:50am 5ft 15s 7s 16 22 mph 1027.5mb 73f 74f
2:40am  -   -   -  11 13 mph 1027.5mb 73f 74f
2:30am  -   -   -  7 13 mph 1027.5mb 73f 74f
2:20am  -   -   -  16 20 mph 1027.5mb 73f 74f
2:10am  -   -   -  11 18 mph 1027.5mb 73f 74f
2:00am  -   -   -  7 9 mph 1027.7mb 73f 74f
1:50am 5ft 9s 6s 9 13 mph 1027.8mb 73f 74f
1:40am 5ft  -  6s 13 20 mph 1027.8mb 73f 74f
1:30am  -   -   -  13 18 mph 1027.9mb 73f 74f
1:20am  -   -   -  9 11 mph 1027.9mb 73f 74f
1:10am  -   -   -  9 13 mph 1027.9mb 73f 74f
1:00am  -   -   -  13 16 mph 1028mb 73f 74f
12:50am 5ft 16s 6s 13 16 mph 1028.1mb 73f 74f
12:40am  -   -   -  11 13 mph 1028.1mb 73f 74f
12:30am  -   -   -  11 16 mph 1028.1mb 73f 74f
12:20am  -   -   -  11 13 mph 1028.2mb 73f 74f
12:10am  -   -   -  13 16 mph 1028.2mb 73f 74f
12:00am  -   -   -  13 16 mph 1028.3mb 73f 74f
Thu 02/22 11:50pm 5ft 17s 6s 11 13 mph 1028.3mb 73f 74f
11:40pm 5ft  -  6s 11 13 mph 1028.4mb 73f 74f
11:30pm  -   -   -  11 16 mph 1028.4mb 73f -
11:20pm  -   -   -  11 16 mph 1028.4mb 73f 74f
11:10pm  -   -   -  13 18 mph 1028.5mb 73f 74f
11:00pm  -   -   -  13 16 mph 1028.6mb 73f 75f
10:50pm 4.5ft 13s 6s 13 16 mph 1028.7mb 73f 75f
10:40pm 4.5ft  -  6s 13 18 mph 1028.7mb 73f 75f
10:30pm  -   -   -  13 18 mph 1028.7mb 73f 75f
10:20pm  -   -   -  13 16 mph 1028.8mb 73f 75f
10:10pm  -   -   -  13 18 mph 1028.8mb 73f 75f
10:00pm  -   -   -  13 20 mph 1028.8mb 73f 74f
9:50pm 5ft 17s 6s 13 16 mph 1028.8mb 73f 75f
9:40pm 5ft  -  6s 13 18 mph 1028.7mb 73f 74f
9:30pm  -   -   -  13 16 mph 1028.7mb 73f 75f
9:20pm  -   -   -  13 18 mph 1028.7mb 73f 74f
9:10pm  -   -   -  13 18 mph 1028.7mb 73f 74f
9:00pm  -   -   -  13 16 mph 1028.7mb 73f 75f
8:50pm 5ft 8s 6s 13 18 mph 1028.7mb 73f 74f
8:40pm 5ft  -  6s 13 20 mph 1028.6mb 73f 73f
8:30pm  -   -   -  13 18 mph 1028.7mb 73f 74f
8:20pm  -   -   -  16 20 mph 1028.6mb 73f 74f
8:10pm  -   -   -  13 16 mph 1028.6mb 73f 74f
8:00pm  -   -   -  11 16 mph 1028.5mb 73f 75f
7:50pm 5ft 16s 7s 11 13 mph 1028.5mb 73f 74f
7:40pm  -   -   -  11 13 mph 1028.4mb - 74f
7:30pm  -   -   -  11 13 mph 1028.4mb 73f 74f
7:20pm  -   -   -  11 16 mph 1028.3mb 73f 75f
7:10pm  -   -   -  11 16 mph 1028.3mb 73f 74f
7:00pm  -   -   -  11 16 mph 1028.3mb 73f 74f
6:50pm 5ft 9s 7s 11 13 mph 1028.3mb 73f 74f
6:40pm 5ft  -  7s 11 13 mph 1028.3mb 73f 74f
6:30pm  -   -   -  11 16 mph 1028.4mb 73f 74f
6:20pm  -   -   -  11 13 mph 1028.3mb 73f 74f
6:10pm  -   -   -  11 13 mph 1028.3mb 73f 75f
6:00pm  -   -   -  11 13 mph 1028.3mb 73f 75f
5:50pm 5ft 9s 6s 11 13 mph 1028.2mb 73f 75f
5:40pm 5ft  -  6s 11 16 mph 1028.2mb 73f 75f
5:30pm  -   -   -  13 18 mph 1028.1mb 73f 75f
5:20pm  -   -   -  13 18 mph 1028mb 73f 75f
5:10pm  -   -   -  13 18 mph 1027.9mb - 75f
5:00pm  -   -   -  13 16 mph 1027.8mb 73f 75f
4:50pm 5ft 14s 6s 13 16 mph 1027.8mb 73f 75f
4:40pm  -   -   -  13 18 mph 1027.8mb 73f 75f
4:30pm  -   -   -  13 18 mph 1027.8mb 73f 75f
4:20pm  -   -   -  13 18 mph 1027.8mb 73f 75f
4:10pm  -   -   -  13 18 mph 1027.8mb 73f 75f
4:00pm  -   -   -  13 18 mph 1027.8mb 73f 75f
3:50pm 5ft 8s 6s 13 18 mph 1027.9mb 73f 75f
3:40pm 5ft  -  6s 13 16 mph 1027.9mb 73f 75f
3:30pm  -   -   -  13 16 mph 1027.9mb 73f 75f
3:20pm  -   -   -  11 13 mph 1028mb 73f 75f
3:10pm  -   -   -  11 13 mph 1028.1mb 73f 75f
3:00pm  -   -   -  11 13 mph 1028.1mb 73f 75f
2:50pm 4.5ft 9s 6s 11 13 mph 1028.1mb 73f 75f
2:40pm 4.5ft  -  6s 11 13 mph 1028.2mb 73f 75f
2:30pm  -   -   -  11 13 mph 1028.3mb 73f 75f
2:20pm  -   -   -  11 16 mph 1028.4mb 73f 75f
2:10pm  -   -   -  11 13 mph 1028.6mb 73f 75f
2:00pm  -   -   -  11 13 mph 1028.8mb 73f 75f
1:50pm 5ft 14s 6s 7 11 mph 1028.9mb 73f 75f
1:40pm  -   -   -  7 11 mph 1029mb 73f 74f
1:30pm  -   -   -  9 16 mph - 73f 75f
1:20pm  -   -   -  11 16 mph 1029.3mb 73f 75f
1:10pm  -   -   -  11 16 mph 1029.4mb 73f 75f
1:00pm  -   -   -  11 16 mph 1029.4mb 73f 75f
12:50pm 5ft 8s 6s 11 13 mph 1029.6mb 73f 75f
12:40pm  -   -   -  11 16 mph 1029.7mb 73f 75f
12:30pm  -   -   -  13 16 mph 1029.8mb 73f 75f
12:20pm  -   -   -  13 16 mph 1029.8mb 73f 75f
12:10pm  -   -   -  11 13 mph 1029.9mb 73f 75f
12:00pm  -   -   -  11 13 mph 1030mb 73f 75f
11:50am 4.5ft 9s 6s 11 16 mph 1030mb 73f 74f
11:40am  -   -   -  13 16 mph 1030.1mb - 74f
11:30am  -   -   -  11 16 mph 1030.2mb 73f 75f
11:20am  -   -   -  9 11 mph 1030.3mb 73f 75f
11:10am  -   -   -  9 13 mph 1030.3mb - 75f
11:00am  -   -   -  9 11 mph 1030.4mb 73f 75f
10:50am 5ft 8s 6s 11 13 mph 1030.4mb 73f 75f
10:40am  -   -   -  9 11 mph 1030.4mb 73f 75f
10:30am  -   -   -  11 13 mph 1030.3mb 73f 75f
10:20am  -   -   -  11 13 mph 1030.3mb 73f 75f
10:10am  -   -   -  9 13 mph 1030.2mb 73f 75f
10:00am  -   -   -  11 13 mph 1030.2mb 73f 75f
9:50am 5ft 8s 6s 11 13 mph 1030.1mb 73f 75f
9:40am  -   -   -  11 13 mph 1030.1mb 73f 75f
9:30am  -   -   -  11 13 mph 1030.1mb 73f 75f
9:20am  -   -   -  9 13 mph 1030mb 73f 75f
9:10am  -   -   -  11 13 mph 1029.9mb 73f 75f
9:00am  -   -   -  11 13 mph 1029.8mb - 75f
8:50am 5ft 12s 6s 11 13 mph 1029.7mb 73f 75f
8:40am  -   -   -  9 13 mph 1029.7mb 73f 74f
8:30am  -   -   -  9 13 mph 1029.7mb 73f 74f
8:20am  -   -   -  11 16 mph 1029.6mb 73f 75f
8:10am  -   -   -  13 16 mph 1029.5mb 73f 75f
8:00am  -   -   -  13 18 mph 1029.4mb 73f 74f
7:50am 5ft 7s 6s 13 16 mph 1029.4mb 73f 74f
7:40am  -   -   -  13 16 mph 1029.4mb 73f 74f
7:30am  -   -   -  13 16 mph 1029.3mb 73f 74f
7:20am  -   -   -  13 16 mph 1029.2mb 73f 74f
7:10am  -   -   -  11 16 mph 1029.1mb 73f 74f
7:00am  -   -   -  11 16 mph 1029.1mb 73f 74f
6:50am 5ft 6s 6s 11 16 mph 1028.9mb 73f 74f
6:40am 5ft  -  6s 11 13 mph 1028.8mb 73f 74f
6:30am  -   -   -  11 16 mph 1028.7mb 73f 74f
6:20am  -   -   -  13 16 mph 1028.6mb 73f 74f
6:10am  -   -   -  13 16 mph 1028.6mb - 74f
6:00am  -   -   -  13 16 mph 1028.6mb 73f 74f
5:50am 5ft 8s 6s 11 16 mph 1028.5mb 73f 74f
5:40am 5ft  -  6s 11 16 mph 1028.4mb 73f 74f
5:30am  -   -   -  13 16 mph 1028.3mb 73f 74f
5:20am  -   -   -  13 18 mph 1028.2mb 73f 74f
5:10am  -   -   -  13 18 mph 1028.2mb 73f 74f
5:00am  -   -   -  13 16 mph 1028.1mb 73f 74f
4:50am 5ft 8s 6s 13 18 mph 1028.1mb 73f 74f
4:40am 5ft  -  6s 16 18 mph 1028mb 73f 74f
4:30am  -   -   -  16 18 mph 1028mb 73f 74f
4:20am  -   -   -  13 18 mph 1028mb 73f 74f
4:10am  -   -   -  13 18 mph 1028mb 73f 74f
4:00am  -   -   -  16 18 mph 1027.9mb 73f 74f
3:50am 5ft 6s 5s 16 20 mph 1028mb 73f 74f
3:40am  -   -   -  16 20 mph 1028.1mb 73f 74f
3:30am  -   -   -  16 20 mph 1028.1mb 73f 74f
3:20am  -   -   -  16 18 mph 1028.2mb 73f 74f
3:10am  -   -   -  16 20 mph 1028.3mb 73f 74f
3:00am  -   -   -  16 20 mph 1028.3mb 73f 74f
2:50am 5.5ft 8s 6s 16 20 mph 1028.3mb 73f 74f
2:40am  -   -   -  16 20 mph 1028.3mb 73f 74f
2:30am  -   -   -  18 22 mph 1028.4mb 73f 74f
2:20am  -   -   -  16 20 mph 1028.5mb 73f 74f
2:10am  -   -   -  16 20 mph 1028.6mb 73f 74f
2:00am  -   -   -  16 20 mph 1028.6mb 73f 74f
1:50am 5ft 8s 5s 13 18 mph 1028.6mb 73f 74f
1:40am  -   -   -  13 18 mph 1028.6mb 73f 74f
1:30am  -   -   -  16 18 mph 1028.8mb 73f 74f
1:20am  -   -   -  13 20 mph 1028.9mb 73f 74f
1:10am  -   -   -  13 18 mph 1028.9mb 73f 74f
1:00am  -   -   -  11 13 mph 1028.9mb 73f 74f
12:50am 5ft 6s 5s 11 13 mph 1029mb 73f 74f
12:40am  -   -   -  11 13 mph 1029.1mb 73f 74f
12:30am  -   -   -  11 13 mph 1029.2mb 73f 74f
12:20am  -   -   -  13 16 mph 1029.2mb 73f 74f
12:10am  -   -   -  13 16 mph 1029.3mb 73f 74f
12:00am  -   -   -  13 18 mph 1029.2mb 73f 74f
Wed 02/21 11:50pm 5ft 8s 5s 16 20 mph 1029.2mb 73f 74f
11:40pm  -   -   -  16 20 mph 1029.3mb 73f 74f
11:30pm  -   -   -  16 20 mph 1029.3mb 73f 74f
11:20pm  -   -   -  16 20 mph 1029.3mb 73f 74f
11:10pm  -   -   -  16 20 mph 1029.4mb 73f 74f
11:00pm  -   -   -  16 20 mph 1029.4mb 73f 74f
10:50pm 5ft 7s 5s 16 18 mph 1029.4mb 73f 74f
10:40pm  -   -   -  13 18 mph 1029.4mb 73f 74f
10:30pm  -   -   -  16 20 mph 1029.4mb - 74f
10:20pm  -   -   -  16 20 mph 1029.5mb 73f 74f
10:10pm  -   -   -  16 18 mph 1029.4mb 73f 74f
10:00pm  -   -   -  16 20 mph 1029.4mb 74f 74f
9:50pm 5ft 6s 5s 16 20 mph 1029.4mb 74f 74f
9:40pm 5ft  -  5s 18 20 mph 1029.3mb 74f 74f
9:30pm  -   -   -  18 22 mph 1029.2mb 74f 74f
9:20pm  -   -   -  16 20 mph 1029.2mb 74f 74f
9:10pm  -   -   -  18 22 mph 1029.2mb 74f 74f
9:00pm  -   -   -  18 22 mph 1029.2mb 74f 74f
8:50pm 5ft 7s 5s 18 22 mph 1029.2mb 74f 74f
8:40pm 5ft  -  5s 18 22 mph 1029.1mb 74f 74f
8:30pm  -   -   -  18 22 mph 1029.1mb 74f 74f
8:20pm  -   -   -  18 22 mph 1029mb - 74f
8:10pm  -   -   -  18 22 mph 1028.9mb 74f 74f
8:00pm  -   -   -  18 22 mph 1028.9mb 74f 74f
7:50pm 5ft  -  5s 18 22 mph 1028.9mb 74f 74f
7:40pm 5ft 13s 5s  -  mph - - -
7:30pm  -   -   -  18 25 mph 1028.9mb 74f 75f
7:20pm  -   -   -  18 22 mph 1028.7mb 74f 75f